This is the latest recevied weather packets stored in our database for station/object NO4D. If no packets are shown the sender has not sent any weather packets the latest 10 day(s).
| Time | Temp. | Humidity | Pressure | Rain* | Wind** | Luminosity | Snow |
|---|---|---|---|---|---|---|---|
| 1777579980 | 23.89° C | 57% | 1009.8 hPa | 0 mm | - | 654 W/m² | - |
| 1777579675 | 23.33° C | 57% | 1009.7 hPa | 0 mm | - | 669 W/m² | - |
| 1777579374 | 24.44° C | 61% | 1009.6 hPa | 0 mm | - | 431 W/m² | - |
| 1777579069 | 23.89° C | 59% | 1009.8 hPa | 0 mm | - | 573 W/m² | - |
| 1777578764 | 24.44° C | 58% | 1009.6 hPa | 0 mm | - | 552 W/m² | - |
| 1777578464 | 23.89° C | 63% | 1009.7 hPa | 0 mm | - | 665 W/m² | - |
| 1777578160 | 23.33° C | 62% | 1009.8 hPa | 0 mm | - | 204 W/m² | - |
| 1777577856 | 23.33° C | 63% | 1009.8 hPa | 0 mm | - | 235 W/m² | - |
| 1777577551 | 23.33° C | 62% | 1009.8 hPa | 0 mm | - | 825 W/m² | - |
| 1777577249 | 22.78° C | 62% | 1009.9 hPa | 0 mm | - | 282 W/m² | - |
| 1777576945 | 22.78° C | 63% | 1010 hPa | 0 mm | - | 575 W/m² | - |
| 1777576641 | 23.89° C | 63% | 1010.1 hPa | 0 mm | - | 369 W/m² | - |
| 1777576341 | 23.33° C | 64% | 1010.1 hPa | 0 mm | - | 724 W/m² | - |
| 1777576038 | 23.33° C | 63% | 1010.2 hPa | 0 mm | - | 777 W/m² | - |
| 1777575734 | 23.33° C | 64% | 1010.2 hPa | 0 mm | - | 593 W/m² | - |
| 1777575430 | 23.33° C | 63% | 1010.1 hPa | 0 mm | - | 539 W/m² | - |
| 1777575126 | 22.78° C | 66% | 1010.2 hPa | 0 mm | - | 784 W/m² | - |
| 1777574821 | 22.22° C | 67% | 1010.4 hPa | 0 mm | - | 658 W/m² | - |
| 1777574520 | 21.67° C | 69% | 1010.4 hPa | 0 mm | - | 553 W/m² | - |
| 1777574216 | 21.11° C | 71% | 1010.4 hPa | 0 mm | - | 460 W/m² | - |
| 1777573910 | 21.67° C | 68% | 1010.5 hPa | 0 mm | - | 309 W/m² | - |
| 1777573610 | 22.22° C | 68% | 1010.6 hPa | 0 mm | - | 413 W/m² | - |
| 1777573308 | 22.22° C | 67% | 1010.7 hPa | 0 mm | - | 335 W/m² | - |
| 1777573004 | 21.67° C | 65% | 1010.6 hPa | 0 mm | - | 465 W/m² | - |
| 1777572699 | 21.67° C | 65% | 1010.5 hPa | 0 mm | - | 440 W/m² | - |
* Rain latest hour (hover to see other rain measurements)
** Current wind speed in m/s (hover to see current wind gust speed)